516  
ASUS44 KBMX 240010  
RWRAL  
 
ALABAMA REGIONAL WEATHER ROUNDUP  
NATIONAL WEATHER SERVICE BIRMINGHAM AL  
700 PM CDT MON APR 23 2018  
 
NOTE: "FAIR" INDICATES FEW OR NO CLOUDS BELOW 12,000 FEET  
WITH NO SIGNIFICANT WEATHER AND/OR S TO VISIBILITY
.  
 
THE REMARK "TC" DENOTES TEMPERATURE IN DEGREES CELSIUS.  
 
ALZ001>011-014-016>018-020-240100-  
NORTH ALABAMA  
 
CITY SKY/WX TMP DP RH WIND PRES REMARKS
 
MUSCLE SHOALS CLOUDY 62 57 83 N3 29.88S  
6HR MIN TEMP: 62; 6HR MAX TEMP: 71; 6HR PCP: 0.04;  
 
HUNTSVILLE CLOUDY 62 61 96 NE6 29.86F  
6HR MIN TEMP: 61; 6HR MAX TEMP: 69; 6HR PCP: 0.32;  
 
DECATUR CLOUDY 61 59 93 E5 29.87S  
6HR MIN TEMP: 61; 6HR MAX TEMP: 68; 6HR PCP: 0.31;  
 
HALEYVILLE CLOUDY 63 55 75 W8 29.90R  
6HR MIN TEMP: 63; 6HR MAX TEMP: 70;  
 
GADSDEN MOCLDY 65 61 87 CALM 29.87S  
6HR MIN TEMP: 63; 6HR MAX TEMP: 74; 6HR PCP: 0.04;  
 

 
 
ALZ012-013-022-023-030>036-040>044-240100-  
WEST CENTRAL ALABAMA  
 
CITY SKY/WX TMP DP RH WIND PRES REMARKS
 
TUSCALOOSA CLOUDY 67 57 70 W8 29.88R  
6HR MIN TEMP: 67; 6HR MAX TEMP: 71;  
 
DEMOPOLIS CLOUDY 65 53 65 W8 29.90S  
6HR MIN TEMP: 65; 6HR MAX TEMP: 68;  
 

 
 
ALZ015-024>026-033>036-041>044-240100-  
CENTRAL ALABAMA  
 
CITY SKY/WX TMP DP RH WIND PRES REMARKS
 
BIRMINGHAM FAIR 65 54 67 W8 29.89R  
6HR MIN TEMP: 62; 6HR MAX TEMP: 70; 6HR PCP: 0.29;  
 
MONTGOMERY FAIR 67 53 61 W13 29.87R  
6HR MIN TEMP: 67; 6HR MAX TEMP: 77;  
 
SHELBY CO ARPT FAIR 65 54 67 SW5 29.87R  
6HR MIN TEMP: 62; 6HR MAX TEMP: 70; 6HR PCP: TRACE;  
 
MAXWELL AFB FAIR 66 51 60 W7 29.86R  
6HR MIN TEMP: 66; 6HR MAX TEMP: 72;  
 
GREENVILLE MOCLDY 67 51 56 NW9 29.87S  
6HR MIN TEMP: 67; 6HR MAX TEMP: 76;  
 
SELMA FAIR 64 50 59 SW7 29.89R  
PRATTVILLE FAIR 66 51 58 W10G16 29.87R  
6HR MIN TEMP: 66; 6HR MAX TEMP: 74;  
 
BESSEMER FAIR 64 53 67 SW6 29.88S  
6HR MIN TEMP: 64; 6HR MAX TEMP: 70;  
 
TALLADEGA MOCLDY 68 60 74 CALM 29.86S  
6HR MIN TEMP: 65; 6HR MAX TEMP: 73;  
 
PELL CITY MOCLDY 68 59 73 CALM 29.86R  
MARION FAIR 63 53 70 W5 29.89R  
6HR MIN TEMP: 63; 6HR MAX TEMP: 69;  
 
SYLACAUGA FAIR 65 57 75 W8 29.87R  
6HR MIN TEMP: 65; 6HR MAX TEMP: 74;  
 

 
 
ALZ019-021-028-029-037-038-045>048-240100-  
EAST CENTRAL ALABAMA  
 
CITY SKY/WX TMP DP RH WIND PRES REMARKS
 
ANNISTON CLOUDY 67 58 72 W3 29.86S  
6HR MIN TEMP: 67; 6HR MAX TEMP: 76;  
 
ALEXANDER CITY FAIR 68 59 72 W6 29.87R  
6HR MIN TEMP: 68; 6HR MAX TEMP: 75;  
 
AUBURN MOCLDY 70 59 68 W12 29.86R  
6HR MIN TEMP: 70; 6HR MAX TEMP: 78;  
 

 
 
ALZ051>064-240100-  
SOUTHWEST ALABAMA  
 
CITY SKY/WX TMP DP RH WIND PRES REMARKS
 
MOBILE FAIR 67 53 61 NW7 29.93R  
6HR MIN TEMP: 67; 6HR MAX TEMP: 74;  
 
BROOKLEY FIELD FAIR 70 54 56 W7 29.93R  
6HR MIN TEMP: 70; 6HR MAX TEMP: 77;  
 
EVERGREEN FAIR 67 52 58 W6 29.89S  
6HR MIN TEMP: 67; 6HR MAX TEMP: 75;  
 

 
 
ALZ049-050-065>069-240100-  
SOUTHEAST ALABAMA  
 
CITY SKY/WX TMP DP RH WIND PRES REMARKS
 
DOTHAN FAIR 72 44 36 SW10 29.88R  
6HR MIN TEMP: 72; 6HR MAX TEMP: 82;  
 
OZARK PTCLDY 71 52 50 S9 29.85R  
6HR MIN TEMP: 71; 6HR MAX TEMP: 81;  
 
TROY FAIR 70 54 56 W5 29.87R  
6HR MIN TEMP: 70; 6HR MAX TEMP: 79;  
 
EUFAULA FAIR 75 59 57 W5 29.82R  
6HR MIN TEMP: 75; 6HR MAX TEMP: 84;  
 

 
 
 
CLICK HERE TO GO TO PREVIOUS BULLETINS.

The Nexlab AL Page Main Text Page